• En España
  • Lista de países
  • Para 7 días
  • Temperatura del agua
  • Mapa Satelital
  • El tiempo en el mapa
  • Informadores
  • user-avatar
    Iniciar sesión

    Tiempo cada hora Sylvensk

    Hoy, 15 Agosto, Miércoles

    Tiempo Temperatura Precipitaciones Viento Presión Humedad
    00:00 +14°C° 0 mm 2 mps 745 mmHg 91%
    01:00 +13°C° 0 mm 2 mps 746 mmHg 93%
    02:00 +13°C° 0 mm 2 mps 746 mmHg 94%
    03:00 +13°C° 0 mm 2 mps 746 mmHg 95%
    04:00 +12°C° 0 mm 2 mps 746 mmHg 96%
    05:00 +13°C° 0 mm 2 mps 746 mmHg 93%
    06:00 +13°C° 0 mm 3 mps 747 mmHg 91%
    07:00 +13°C° 0 mm 3 mps 747 mmHg 88%
    08:00 +16°C° 0 mm 3 mps 747 mmHg 80%
    09:00 +18°C° 0 mm 3 mps 747 mmHg 73%
    10:00 +19°C° 0 mm 4 mps 747 mmHg 65%
    11:00 +20°C° 0 mm 4 mps 747 mmHg 61%
    12:00 +21°C° 0 mm 4 mps 747 mmHg 58%
    13:00 +22°C° 0 mm 4 mps 747 mmHg 54%
    14:00 +22°C° 0 mm 4 mps 747 mmHg 54%
    15:00 +22°C° 0 mm 4 mps 747 mmHg 54%
    16:00 +22°C° 0 mm 4 mps 747 mmHg 54%
    17:00 +21°C° 0 mm 3 mps 748 mmHg 61%
    18:00 +20°C° 0 mm 3 mps 748 mmHg 67%
    19:00 +19°C° 0 mm 2 mps 748 mmHg 73%
    20:00 +17°C° 0 mm 2 mps 748 mmHg 77%
    21:00 +16°C° 0 mm 2 mps 749 mmHg 80%
    22:00 +15°C° 0 mm 2 mps 749 mmHg 84%
    23:00 +14°C° 0 mm 2 mps 749 mmHg 86%

    Mañana, 16 Agosto, Jueves

    Tiempo Temperatura Precipitaciones Viento Presión Humedad
    00:00 +14°C° 0 mm 2 mps 749 mmHg 88%
    01:00 +13°C° 0 mm 2 mps 749 mmHg 90%
    02:00 +13°C° 0 mm 2 mps 749 mmHg 91%
    03:00 +12°C° 0 mm 2 mps 749 mmHg 92%
    04:00 +12°C° 0 mm 2 mps 749 mmHg 93%
    05:00 +13°C° 0 mm 2 mps 749 mmHg 90%
    06:00 +14°C° 0 mm 2 mps 749 mmHg 87%
    07:00 +15°C° 0 mm 2 mps 749 mmHg 84%
    08:00 +16°C° 0,1 mm 3 mps 748 mmHg 81%
    09:00 +18°C° 0,1 mm 4 mps 748 mmHg 77%
    10:00 +19°C° 0,1 mm 5 mps 747 mmHg 74%
    11:00 +19°C° 1 mm 5 mps 747 mmHg 79%
    12:00 +17°C° 1 mm 5 mps 746 mmHg 83%
    13:00 +17°C° 1 mm 5 mps 746 mmHg 88%
    14:00 +19°C° 0,5 mm 5 mps 746 mmHg 88%
    15:00 +19°C° 0,5 mm 5 mps 745 mmHg 88%
    16:00 +20°C° 0,5 mm 5 mps 745 mmHg 89%
    17:00 +20°C° 0,9 mm 4 mps 745 mmHg 90%
    18:00 +19°C° 0,9 mm 4 mps 745 mmHg 91%
    19:00 +19°C° 0,9 mm 3 mps 745 mmHg 93%
    20:00 +18°C° 0,1 mm 3 mps 745 mmHg 94%
    21:00 +17°C° 0,1 mm 3 mps 745 mmHg 96%
    22:00 +17°C° 0,1 mm 3 mps 745 mmHg 97%
    23:00 +16°C° 0 mm 3 mps 745 mmHg 97%

    Pasado mañana, 17 Agosto, Viernes

    Tiempo Temperatura Precipitaciones Viento Presión Humedad
    00:00 +14°C° 0 mm 3 mps 745 mmHg 97%
    01:00 +14°C° 0 mm 3 mps 746 mmHg 97%
    02:00 +13°C° 0 mm 3 mps 746 mmHg 97%
    03:00 +13°C° 0 mm 3 mps 746 mmHg 97%
    04:00 +12°C° 0 mm 3 mps 747 mmHg 96%
    05:00 +12°C° 0 mm 3 mps 747 mmHg 96%
    06:00 +12°C° 0 mm 3 mps 747 mmHg 95%
    07:00 +12°C° 0 mm 3 mps 747 mmHg 95%
    08:00 +14°C° 0 mm 3 mps 748 mmHg 89%
    09:00 +16°C° 0 mm 3 mps 748 mmHg 83%
    10:00 +18°C° 0 mm 3 mps 748 mmHg 78%
    11:00 +19°C° 0 mm 4 mps 748 mmHg 72%
    12:00 +20°C° 0 mm 4 mps 748 mmHg 66%
    13:00 +21°C° 0 mm 4 mps 748 mmHg 60%
    14:00 +21°C° 0,1 mm 4 mps 748 mmHg 60%
    15:00 +21°C° 0,1 mm 4 mps 748 mmHg 60%
    16:00 +21°C° 0,1 mm 4 mps 748 mmHg 60%
    17:00 +19°C° 0,1 mm 3 mps 749 mmHg 66%
    18:00 +18°C° 0,1 mm 3 mps 749 mmHg 71%
    19:00 +16°C° 0,1 mm 2 mps 749 mmHg 77%
    20:00 +14°C° 0 mm 3 mps 749 mmHg 80%
    21:00 +13°C° 0 mm 3 mps 749 mmHg 83%
    22:00 +12°C° 0 mm 3 mps 750 mmHg 86%
    23:00 +11°C° 0 mm 3 mps 750 mmHg 88%

    18 Agosto, Sábado

    Tiempo Temperatura Precipitaciones Viento Presión Humedad
    00:00 +10°C° 0 mm 3 mps 750 mmHg 89%
    01:00 +10°C° 0 mm 3 mps 750 mmHg 91%
    02:00 +9°C° 0 mm 3 mps 751 mmHg 92%
    03:00 +9°C° 0 mm 3 mps 751 mmHg 93%
    04:00 +8°C° 0 mm 3 mps 751 mmHg 93%
    05:00 +9°C° 0 mm 3 mps 751 mmHg 90%
    06:00 +8°C° 0 mm 4 mps 752 mmHg 87%
    07:00 +10°C° 0 mm 4 mps 752 mmHg 84%
    08:00 +11°C° 0 mm 4 mps 752 mmHg 77%
    09:00 +13°C° 0 mm 4 mps 752 mmHg 70%
    10:00 +14°C° 0 mm 5 mps 752 mmHg 63%
    11:00 +15°C° 0 mm 5 mps 752 mmHg 60%
    12:00 +15°C° 0 mm 5 mps 752 mmHg 57%
    13:00 +16°C° 0 mm 5 mps 752 mmHg 55%
    14:00 +16°C° 0 mm 5 mps 752 mmHg 55%
    15:00 +16°C° 0 mm 5 mps 752 mmHg 56%
    16:00 +16°C° 0 mm 5 mps 752 mmHg 57%
    17:00 +15°C° 0 mm 4 mps 752 mmHg 63%
    18:00 +14°C° 0 mm 3 mps 753 mmHg 69%
    19:00 +13°C° 0 mm 3 mps 753 mmHg 75%
    20:00 +12°C° 0 mm 3 mps 753 mmHg 79%
    21:00 +12°C° 0 mm 2 mps 753 mmHg 84%
    22:00 +10°C° 0 mm 2 mps 754 mmHg 88%
    23:00 +9°C° 0 mm 2 mps 754 mmHg 89%

    19 Agosto, Domingo

    Tiempo Temperatura Precipitaciones Viento Presión Humedad
    00:00 +9°C° 0 mm 2 mps 754 mmHg 91%
    01:00 +9°C° 0 mm 2 mps 754 mmHg 92%
    02:00 +8°C° 0 mm 2 mps 754 mmHg 93%
    03:00 +8°C° 0 mm 2 mps 754 mmHg 94%
    04:00 +7°C° 0 mm 2 mps 755 mmHg 94%
    05:00 +8°C° 0 mm 2 mps 755 mmHg 90%
    06:00 +9°C° 0 mm 2 mps 755 mmHg 86%
    07:00 +10°C° 0 mm 2 mps 755 mmHg 82%
    08:00 +13°C° 0 mm 2 mps 755 mmHg 74%
    09:00 +14°C° 0 mm 2 mps 755 mmHg 66%
    10:00 +16°C° 0 mm 2 mps 755 mmHg 58%
    11:00 +17°C° 0 mm 2 mps 755 mmHg 55%
    12:00 +18°C° 0 mm 2 mps 754 mmHg 51%
    13:00 +19°C° 0 mm 2 mps 754 mmHg 48%
    14:00 +19°C° 0 mm 2 mps 754 mmHg 48%
    15:00 +19°C° 0 mm 2 mps 754 mmHg 49%
    16:00 +19°C° 0 mm 2 mps 754 mmHg 49%
    17:00 +18°C° 0 mm 2 mps 754 mmHg 56%
    18:00 +17°C° 0 mm 2 mps 754 mmHg 63%
    19:00 +15°C° 0 mm 1 mps 754 mmHg 70%
    20:00 +14°C° 0 mm 1 mps 754 mmHg 73%
    21:00 +12°C° 0 mm 1 mps 754 mmHg 76%
    22:00 +11°C° 0 mm 1 mps 754 mmHg 79%
    23:00 +11°C° 0 mm 1 mps 754 mmHg 80%

    20 Agosto, Lunes

    Tiempo Temperatura Precipitaciones Viento Presión Humedad
    00:00 +10°C° 0 mm 1 mps 754 mmHg 81%
    01:00 +10°C° 0 mm 1 mps 754 mmHg 83%
    02:00 +9°C° 0 mm 1 mps 754 mmHg 84%
    03:00 +9°C° 0 mm 1 mps 754 mmHg 85%
    04:00 +9°C° 0 mm 1 mps 754 mmHg 86%
    05:00 +10°C° 0 mm 1 mps 754 mmHg 83%
    06:00 +11°C° 0 mm 1 mps 754 mmHg 79%
    07:00 +12°C° 0 mm 1 mps 754 mmHg 76%
    08:00 +14°C° 0 mm 1 mps 753 mmHg 70%
    09:00 +16°C° 0 mm 1 mps 753 mmHg 64%
    10:00 +19°C° 0 mm 1 mps 753 mmHg 58%
    11:00 +20°C° 0 mm 1 mps 753 mmHg 55%
    12:00 +21°C° 0 mm 1 mps 752 mmHg 51%
    13:00 +22°C° 0 mm 1 mps 752 mmHg 48%
    14:00 +23°C° 0 mm 1 mps 752 mmHg 48%
    15:00 +23°C° 0 mm 1 mps 752 mmHg 47%
    16:00 +23°C° 0 mm 1 mps 751 mmHg 47%
    17:00 +21°C° 0 mm 1 mps 751 mmHg 53%
    18:00 +20°C° 0 mm 1 mps 751 mmHg 60%
    19:00 +18°C° 0 mm 1 mps 751 mmHg 67%
    20:00 +16°C° 0 mm 1 mps 751 mmHg 69%
    21:00 +14°C° 0 mm 1 mps 751 mmHg 72%
    22:00 +13°C° 0 mm 1 mps 751 mmHg 75%
    23:00 +13°C° 0 mm 1 mps 751 mmHg 77%
    Mostrar más